User: anonymous   Login
Location: Hurecourt
(47.9030°N, 6.0653°E)
Time: 09:34:01
(UTC+00:00)
Language:

DELTA 2 DEB (DPAF) - Orbit

View from above orbital plane
View from above orbital plane
View from above satellite
View from above satellite

Ground track
Ground track

The orbit data is extracted from the following two-line orbital elements,

1 29110U 06016D   20271.87628937 +.00000682 +00000-0 +10840-3 0  9990
2 29110 098.3425 040.9771 0002137 259.8858 257.8561 14.75432082772907
Epoch (UTC): 27 September 2020 21:01:51
Eccentricity: 0.0002137
inclination: 98.3425°
perigee height: 642 km
apogee height: 645 km
right ascension of ascending node: 40.9771°
argument of perigee: 259.8858°
revolutions per day: 14.75432082
mean anomaly at epoch: 257.8561°
orbit number at epoch: 77290

The dashed part of the orbit path shows where the satellite is in the earth's shadow,  

DLR